Archiv-/Tagesdaten

--Timestamp---	Temp	Chill	HIndex	Humid	Dewpt	 Wind 	HiWind	WindDir	Rain 	Barom	Solar	 ET  	 UV 
--------------	----	-----	------	-----	-----	------	------	-------	-----	-----	-----	-----	----
20260509 00:00	11.9	11.9	11.9	73	7.2	0	0	-100000	0.0	1015.5	0	0.025	0.0
20260509 00:05	11.8	11.8	11.8	74	7.3	0	0	-100000	0.0	1015.4	0	0.000	0.0
20260509 00:10	11.7	11.7	11.7	74	7.2	0	0	-100000	0.0	1015.4	0	0.000	0.0
20260509 00:15	11.6	11.6	11.6	74	7.1	0	0	-100000	0.0	1015.3	0	0.000	0.0
20260509 00:20	11.5	11.5	11.5	74	7.0	0	0	-100000	0.0	1015.5	0	0.000	0.0
20260509 00:25	11.4	11.4	11.4	74	7.0	0	0	-100000	0.0	1015.4	0	0.000	0.0
20260509 00:30	11.3	11.3	11.3	75	7.1	0	0	-100000	0.0	1015.4	0	0.000	0.0
20260509 00:35	11.2	11.2	11.2	75	7.0	0	0	-100000	0.0	1015.4	0	0.000	0.0
20260509 00:40	11.1	11.1	11.1	75	6.8	0	0	-100000	0.0	1015.5	0	0.000	0.0
20260509 00:45	11.0	11.0	11.0	75	6.7	0	0	-100000	0.0	1015.5	0	0.000	0.0
20260509 00:50	10.9	10.9	10.9	76	6.8	0	0	-100000	0.0	1015.5	0	0.000	0.0
20260509 00:55	10.8	10.8	10.8	77	7.0	0	0	-100000	0.0	1015.4	0	0.000	0.0
20260509 01:00	10.7	10.7	10.7	77	6.9	0	0	-100000	0.0	1015.5	0	0.025	0.0
20260509 01:05	10.6	10.6	10.6	77	6.7	0	0	-100000	0.0	1015.3	0	0.000	0.0
20260509 01:10	10.5	10.5	10.5	77	6.6	0	0	-100000	0.0	1015.2	0	0.000	0.0
20260509 01:15	10.3	10.3	10.3	78	6.7	0	0	-100000	0.0	1015.3	0	0.000	0.0
20260509 01:20	10.3	10.3	10.3	78	6.6	0	0	-100000	0.0	1015.3	0	0.000	0.0
20260509 01:25	10.3	10.3	10.3	79	6.8	0	0	-100000	0.0	1015.4	0	0.000	0.0
20260509 01:30	10.3	10.3	10.3	79	6.8	0	0	-100000	0.0	1015.3	0	0.000	0.0
20260509 01:35	10.5	10.5	10.5	78	6.8	0	0	-100000	0.0	1015.3	0	0.000	0.0
20260509 01:40	10.5	10.5	10.5	78	6.8	0	0	-100000	0.0	1015.2	0	0.000	0.0
20260509 01:45	10.5	10.5	10.5	78	6.8	0	0	-100000	0.0	1015.2	0	0.000	0.0
20260509 01:50	10.4	10.4	10.4	79	6.9	0	0	-100000	0.0	1015.1	0	0.000	0.0
20260509 01:55	10.3	10.3	10.3	79	6.8	0	0	-100000	0.0	1015.1	0	0.000	0.0
20260509 02:00	10.1	10.1	10.1	79	6.6	0	0	-100000	0.0	1015.2	0	0.025	0.0
20260509 02:05	10.0	10.0	10.0	79	6.5	0	0	-100000	0.0	1015.2	0	0.000	0.0
20260509 02:10	9.9	9.9	9.9	79	6.5	0	0	-100000	0.0	1015.2	0	0.000	0.0
20260509 02:15	9.9	9.9	9.9	80	6.6	0	0	-100000	0.0	1015.2	0	0.000	0.0
20260509 02:20	9.9	9.9	9.9	80	6.6	0	0	-100000	0.0	1015.2	0	0.000	0.0
20260509 02:25	9.8	9.8	9.8	80	6.5	0	0	-100000	0.0	1015.2	0	0.000	0.0
20260509 02:30	9.7	9.7	9.7	81	6.6	0	0	-100000	0.0	1015.3	0	0.000	0.0
20260509 02:35	9.7	9.7	9.7	81	6.6	0	0	-100000	0.0	1015.4	0	0.000	0.0
20260509 02:40	9.6	9.6	9.6	81	6.5	0	0	-100000	0.0	1015.4	0	0.000	0.0
20260509 02:45	9.5	9.5	9.5	81	6.4	0	0	-100000	0.0	1015.4	0	0.000	0.0
20260509 02:50	9.6	9.6	9.6	82	6.6	0	0	-100000	0.0	1015.4	0	0.000	0.0
20260509 02:55	9.5	9.5	9.5	81	6.4	0	0	-100000	0.0	1015.4	0	0.000	0.0
20260509 03:00	9.4	9.4	9.4	82	6.5	0	0	-100000	0.0	1015.3	0	0.025	0.0
20260509 03:05	9.3	9.3	9.3	82	6.4	0	0	-100000	0.0	1015.0	0	0.000	0.0
20260509 03:10	9.3	9.3	9.3	82	6.4	0	0	-100000	0.0	1015.1	0	0.000	0.0
20260509 03:15	9.2	9.2	9.2	82	6.3	0	0	-100000	0.0	1015.2	0	0.000	0.0
20260509 03:20	9.1	9.1	9.1	82	6.2	0	0	-100000	0.0	1015.2	0	0.000	0.0
20260509 03:25	9.1	9.1	9.1	82	6.1	0	0	-100000	0.0	1015.1	0	0.000	0.0
20260509 03:30	9.0	9.0	9.0	83	6.3	0	0	-100000	0.0	1015.1	0	0.000	0.0
20260509 03:35	8.9	8.9	8.9	83	6.2	0	0	-100000	0.0	1015.1	0	0.000	0.0
20260509 03:40	8.9	8.9	8.9	84	6.3	0	0	-100000	0.0	1015.1	0	0.000	0.0
20260509 03:45	8.9	8.9	8.9	84	6.4	0	0	-100000	0.0	1015.1	0	0.000	0.0
20260509 03:50	8.9	8.9	8.9	84	6.3	0	0	-100000	0.0	1015.0	0	0.000	0.0
20260509 03:55	8.9	8.9	8.9	84	6.3	0	0	-100000	0.0	1015.0	0	0.000	0.0
20260509 04:00	8.9	8.9	8.9	84	6.3	0	0	-100000	0.0	1015.0	0	0.000	0.0
20260509 04:05	8.9	8.9	8.9	84	6.3	0	0	-100000	0.0	1015.1	0	0.000	0.0
20260509 04:10	8.9	8.9	8.9	84	6.3	0	0	-100000	0.0	1015.2	0	0.000	0.0
20260509 04:15	8.9	8.9	8.9	84	6.3	0	0	-100000	0.0	1015.3	0	0.000	0.0
20260509 04:20	8.8	8.8	8.8	84	6.3	0	0	-100000	0.0	1015.3	0	0.000	0.0



Please note the license to use and transfer of this data:
https://creativecommons.org/licenses/by-nc-sa/3.0/deed.en

Bitte beachten sie die Lizenz zur Verwertung und Weitergabe der Daten:
https://creativecommons.org/licenses/by-nc-sa/3.0/deed.de

zurück zur Übersicht der Archivdaten (Monats und Tagesdaten)